Home > Weather > Suzhou > Past weeks

Flag for China Weather for the Past 2 Weeks in Suzhou, Jiangsu, China

Now
72 °F

Sunny.


Feels Like: 77 °F
Forecast: 61 / 83 °F
Wind: 26 mph from West

Location: Shanghai Hongqiao Airport

Current Time: May 3, 2016 at 11:15:40 AM

Latest Report: May 3, 2016 at 10:00 AM


Visibility: 10 mi

Pressure: 29.80 "Hg

Humidity: 47%

Dew Point: 50 °F

Location of SuzhouLocation

Historic Weather in Suzhou — Graph

°F

Suzhou Temperature Yesterday

Maximum temperature yesterday: 75 °F (at 8:30 AM)
Minimum temperature yesterday: 70 °F (at 12:00 AM)
Average temperature yesterday: 71 °F

High & Low Weather Summary for the Past Weeks

 TemperatureHumidityPressure
High84 °F (May 1, 12:30 PM)100% (Apr 20, 7:30 PM)30.21 "Hg (Apr 20, 7:30 PM)
Low54 °F (Apr 29, 4:00 AM)27% (Apr 19, 3:00 PM)29.53 "Hg (May 3, 12:30 AM)
Average65 °F73%29.89 "Hg
* Reported Apr 18 9:30 AM — May 3 9:30 AM, Suzhou, Weather by CustomWeather, © 2016

Note: Actual official high and low records may vary slightly from our data, if they occured in-between our weather recording intervals... More about our weather records

Advertising

Suzhou Weather History for the Previous 24 Hours

Scroll right to see more
 ConditionsComfort  
Time TempWeatherWind HumidityBarometerVisibility
9:30 AM
Tue, May 3
72 °FPassing clouds.24 mph47%29.80 "HgN/A
9:00 AM70 °FPassing clouds.20 mph50%29.80 "HgN/A
8:30 AM70 °FPassing clouds.17 mph53%29.80 "HgN/A
8:00 AM68 °FPassing clouds.17 mph53%29.80 "HgN/A
7:30 AM66 °FPassing clouds.15 mph60%29.77 "HgN/A
7:00 AM66 °FSunny.13 mph60%29.77 "Hg10 mi
6:30 AM64 °FPassing clouds.13 mph64%29.77 "HgN/A
6:00 AM64 °FPassing clouds.17 mph60%29.74 "HgN/A
5:30 AM64 °FSunny.15 mph64%29.71 "Hg10 mi
5:00 AM64 °FClear.17 mph64%29.68 "Hg10 mi
4:30 AM64 °FClear.17 mph68%29.65 "Hg10 mi
4:00 AM66 °FPassing clouds.15 mph68%29.65 "HgN/A
3:30 AM68 °FPassing clouds.17 mph78%29.62 "HgN/A
3:00 AM70 °FPassing clouds.20 mph83%29.59 "Hg5 mi
2:30 AM70 °FPassing clouds.15 mph88%29.56 "Hg5 mi
2:00 AM70 °FMostly cloudy.13 mph94%29.56 "Hg4 mi
1:30 AM70 °FPassing clouds.10 mph94%29.56 "Hg5 mi
1:00 AM70 °FSprinkles. Passing clouds.6 mph100%29.53 "Hg4 mi
12:30 AM70 °FSprinkles. Mostly cloudy.6 mph100%29.53 "Hg4 mi
12:00 AM72 °FRain showers. Fog.6 mph94%29.56 "Hg2 mi
11:30 PM
Mon, May 2
72 °FSprinkles. Fog.3 mph94%29.56 "Hg2 mi
11:00 PM72 °FFog.6 mph94%29.56 "Hg3 mi
10:30 PM70 °FFog.8 mph100%29.59 "Hg3 mi
10:00 PM70 °FSprinkles. Fog.13 mph100%29.59 "Hg2 mi
9:30 PM70 °FSprinkles. Fog.6 mph94%29.62 "Hg2 mi
9:00 PM70 °FSprinkles. Fog.3 mph94%29.62 "Hg3 mi
8:30 PM72 °FSprinkles. Fog.3 mph88%29.62 "Hg3 mi
8:00 PM72 °FSprinkles. Low clouds.6 mph94%29.62 "Hg4 mi
7:30 PM72 °FPassing clouds.6 mph88%29.59 "Hg5 mi
7:00 PM72 °FPartly cloudy.6 mph88%29.59 "Hg5 mi
6:30 PM72 °FPartly sunny.8 mph94%29.59 "Hg4 mi
6:00 PM72 °FClear.6 mph94%29.59 "Hg4 mi
5:30 PM72 °FPassing clouds.6 mph94%29.59 "Hg4 mi
5:00 PM72 °FSprinkles. Passing clouds.8 mph94%29.59 "Hg5 mi
4:30 PM72 °FSprinkles. Clear.13 mph88%29.59 "HgN/A
3:30 PM72 °FSprinkles. Scattered clouds.13 mph88%29.62 "HgN/A
3:00 PM73 °FSprinkles. Scattered clouds.13 mph89%29.65 "HgN/A
2:30 PM73 °FSprinkles. Scattered clouds.13 mph83%29.68 "HgN/A
1:00 PM73 °FSunny.10 mph83%29.71 "Hg10 mi
12:30 PM73 °FClear.13 mph89%29.71 "Hg5 mi
12:00 PM73 °FSprinkles. Clear.10 mph89%29.71 "Hg4 mi
11:30 AM72 °FSprinkles. Passing clouds.6 mph88%29.74 "Hg4 mi
11:00 AM70 °FThunderstorms. Passing clouds.8 mph94%29.74 "Hg4 mi
Weather by CustomWeather, © 2016

See weather overviewHow to use our weather pages